Regional Weather Roundup
Issued by NWS

Home | Current Version | Previous Version | Graphics & Text | Print | Product List | Glossary On
Versions: 1 2 3 4 5 6 7 8 9 10 11 12 13 14 15 16 17 18 19 20 21 22 23 24 25 26 27 28 29 30 31 32 33 34 35 36 37 38 39 40 41 42 43 44 45 46 47 48 49 50
435
ASUS45 KSLC 271910
RWRUT

UTAH REGIONAL WEATHER ROUNDUP
NATIONAL WEATHER SERVICE SALT LAKE CITY UT
100 PM MDT SAT MAY 27 2017

UTZ001>011-023>025-272000-

NORTHERN UTAH

CITY           SKY/WX    TMP DP  RH WIND       PRES   REMARKS
BRIGHAM CITY   SUNNY     62  36  37 CALM      30.23F
HILL AFB       SUNNY     60  38  42 NW8       30.23S
LOGAN          MOSUNNY   62  42  47 NW7       30.23S
OGDEN          SUNNY     60  37  42 VRB5      30.23R
SALT LAKE CITY MOSUNNY   65  37  35 NW12      30.22S
TOOELE VALLEY  SUNNY     61  36  39 N9        30.25S
WENDOVER       SUNNY     65  36  34 E8        30.24S
HEBER CITY     SUNNY     64  28  25 N9        30.20S
WEST JORDAN    SUNNY     61  44  53 NW12G18   30.24S

$$

UTZ011>015-024>027-272000-

CENTRAL/NORTHEAST UTAH

CITY           SKY/WX    TMP DP  RH WIND       PRES   REMARKS
PROVO AIRPORT  SUNNY     61  37  41 W8        30.23S
MOAB/CANYONLAN SUNNY     75  22  13 NW17G24   30.07S
DELTA          SUNNY     64  28  25 N5        30.20F
PRICE          SUNNY     67  28  23 W13G21    30.15S
ROOSEVELT      SUNNY     66  30  26 S8        30.19S
VERNAL         PTSUNNY   65  28  24 VRB3      30.17S

$$

UTZ013>016-019>022-027-272000-

SOUTHERN UTAH

CITY           SKY/WX    TMP DP  RH WIND       PRES   REMARKS
BRYCE CANYON   SUNNY     62  24  23 NW13G32   30.24S
CEDAR CITY     SUNNY     67  30  25 MISG      30.18S
MILFORD        SUNNY     68  28  22 N13G22    30.19F
ST GEORGE      CLEAR     79  31  17 CALM      30.05S
HANKSVILLE     SUNNY     73  23  15 W9        30.11S
BLANDING       SUNNY     71  22  15 SW8G21    30.18S

$$

REGIONAL REPORTS     COLORADO/ARIZONA

CITY           SKY/WX    TMP DP  RH WIND       PRES   REMARKS
CRAIG, CO      CLOUDY    55  36  48 N9G16     30.20S
GRAND JUNCTION SUNNY     70  29  21 W13G20    30.10S
RIFLE, CO      MOSUNNY   60  37  42 N7        30.16R
MONTROSE, CO   SUNNY     65  31  28 NE10      30.14S
CORTEZ, CO     SUNNY     71  28  20 W13G18    30.12S
COLORADO CITY    N/A     77  32  19 N3        30.15S
PAGE, AZ       SUNNY     76  29  17 CALM      30.08S
GRAND CANYON   SUNNY     68  20  16 SW5       30.21S
KINGMAN, AZ    SUNNY     81  32  17 CALM      30.05S
FLAGSTAFF, AZ  SUNNY     67  24  19 SW10G17   30.20S

$$

REGIONAL REPORTS    NEVADA/IDAHO/WYOMING

CITY           SKY/WX    TMP DP  RH WIND       PRES   REMARKS
LAS VEGAS, NV  MOSUNNY   85  26  11 CALM      29.99S
ELY, NY        SUNNY     63  28  26 MISG      30.24S
ELKO, NV       SUNNY     67  25  20 VRB6      30.23S
POCATELLO, ID  MOSUNNY   60  47  61 VRB5      30.26S
BURLEY, ID     SUNNY     64  44  48 N3        30.23S
FORT BRIDGER,  CLOUDY    55  29  37 N8        30.29S
EVANSTON, WY   SUNNY     54  31  41 VRB5      30.27S
ROCK SPRINGS,  PTSUNNY   53  27  36 VRB5      30.24R
KEMMERER, WY     N/A     52  28  40 SW9       30.27R

$$




USA.gov is the U.S. government's official web portal to all federal, state and local government web resources and services.